Zurück zum Katalog

STARLINK-38151

AktivKommunikationSSO
NORAD 100168·PAYLOAD·🇺🇸 United States

Gestartet Jul 25, 2026 von Vandenberg Space Force Base

Loading…

Nächste Überflüge (nächste 24 Stunden)

TLE

AktuellSource: Space-Track

Epoche: Sep 12, 2026, 14:52 UTC

1 A0168U 26171W   26255.61998490 -.00035063  00000-0 -64794-3 0  9990
2 A0168  97.2829 288.1003 0001023  43.6427 316.4905 15.49099452  7685

Verfolge STARLINK-38151 in Echtzeit mit AllMySat

Download on the App Store